Regional Weather Roundup
Issued by NWS

Home | Current Version | Previous Version | Text Only | Print | Product List | Glossary On
Versions: 1 2 3 4 5 6 7 8 9 10 11 12 13 14 15 16 17 18 19 20 21 22 23 24 25 26 27 28 29 30 31 32 33 34 35 36 37 38 39 40 41 42 43 44 45 46 47 48 49 50
000
ASUS43 KDTX 202101
RWRMI
MICHIGAN HOURLY REGIONAL WEATHER ROUNDUP
NATIONAL WEATHER SERVICE DETROIT/PONTIAC MI
500 PM EDT MON APR 20 2015

NOTE: "FAIR" INDICATES FEW OR NO CLOUDS BELOW 12,000 FEET WITH NO
SIGNIFICANT WEATHER AND/OR OBSTRUCTION TO VISIBILITY.

MIZ047>049-052>055-059>063-066>070-074>076-081>083-202200-
SOUTHEAST LOWER MICHIGAN

CITY           SKY/WX    TMP DP  RH WIND       PRES   REMARKS
ADRIAN         CLOUDY    51  43  74 W23G37    29.45R
ALMA           CLOUDY    47  43  88 W25G37    29.35R
ANN ARBOR      CLOUDY    53  44  71 SW20G37   29.40R
BAD AXE        CLOUDY    54  49  82 SW18G26   29.28R
CARO           CLOUDY    52  46  80 SW20G37   29.31R
DETROIT CITY   CLOUDY    56  43  61 SW23G38   29.37R
DETROIT        CLOUDY    57  43  59 SW25G33   29.41R
FLINT          CLOUDY    53  43  68 W28G41    29.36R
GROSSE ILE     CLOUDY    55  45  67 SW21G28   29.40R
HILLSDALE      LGT RAIN  48  45  91 W18G26    29.45R
HOWELL         CLOUDY    49  47  95 SW16G30   29.38R FOG

CITY           SKY/WX    TMP DP  RH WIND       PRES   REMARKS
JACKSON        CLOUDY    48  44  86 SW20G33   29.42R
LAMBERTVILLE   CLOUDY    54  43  66 SW10G25   29.46R
LANSING        CLOUDY    48  41  76 W24G38    29.40R
LAPEER         DRIZZLE   51  47  86 W22G36    29.34R
MASON          CLOUDY    47  41  81 W15G28    29.41R HAZE
MONROE         CLOUDY    54  45  71 SW25G35   29.42R
PONTIAC        LGT RAIN  51  47  86 SW21G30   29.37R
PORT HOPE        N/A     55  50  83 SW13G24   29.24R
PORT HURON     CLOUDY    59  45  58 SW14G25   29.33R
TRI CITIES     CLOUDY    51  45  79 SW25G41   29.30R
TROY           CLOUDY    56  45  65 W24G37    29.39R
SAGINAW HB     CLOUDY    52  45  76 SW25G33   29.31R
$$
MIZ043>046-050>051-056>058-064>065-071>073-077>080-202200-
SOUTHWEST LOWER MICHIGAN

CITY           SKY/WX    TMP DP  RH WIND       PRES   REMARKS
BATTLE CREEK   CLOUDY    44  41  89 W22G30    29.45R
BENTON HARBOR  CLOUDY    42  40  92 W16       29.49R
BIG RAPIDS     LGT RAIN  43  40  89 W16G28    29.33R
COLDWATER      LGT RAIN  46  44  93 W16G23    29.46R
FREMONT        RAIN      40  39  93 W14G23    29.38R WCI  33
HOLLAND        LGT RAIN  43  40  89 W17       29.45R FOG
GRAND RAPIDS   LGT RAIN  42  41  96 W22G28    29.42R FOG
IONIA          DRIZZLE   45  43  93 W29       29.39R
KALAMAZOO      LGT RAIN  45  41  86 W13G21    29.47R FOG
LUDINGTON      LGT RAIN  40  38  90 W10       29.36R WCI  34
MARSHALL       CLOUDY    44  42  91 W24G32    29.44R FOG
MOUNT PLEASANT CLOUDY    48  44  85 SW17G23   29.31R
MUSKEGON       LGT RAIN  41  38  89 SW14      29.42R
SOUTH HAVEN    DRIZZLE   42  41  93 W13G22    29.48R
$$
MIZ016>042-202200-
NORTHERN LOWER MICHIGAN

CITY           SKY/WX    TMP DP  RH WIND       PRES   REMARKS
ALPENA         CLOUDY    53  44  71 SW13G24   29.18R
BEAVER ISLAND  LGT RAIN  38  37  98 W9        29.20R WCI  31
BELLAIRE       CLOUDY    43  41  91 SW6       29.23R FOG
CADILLAC       LGT RAIN  43  41  92 SW14G22   29.26R
CHARLEVOIX     LGT RAIN  42  41  99 SW17      29.24R
FRANKFORT      LGT RAIN  42  37  81 W13G20    29.29R
GAYLORD        CLOUDY    42  40  92 SW20G30   29.20R
GRAYLING       CLOUDY    42  40  90 SW9G16    29.24R
HARBOR SPRINGS RAIN      39  38  97 SW12      29.19S WCI  32
HOUGHTON LAKE  CLOUDY    45  39  79 W15G24    29.26R
MANISTEE       CLOUDY    39  36  87 W15G22    29.33R WCI  31
OSCODA         CLOUDY    56  46  69 SW26G32   29.21R
PELLSTON       LGT RAIN  43  40  89 SW12G22   29.19R
ROGERS CITY    CLOUDY    47  43  85 SW16G26   29.19R
TRAVERSE CITY  LGT RAIN  45  42  89 SW8       29.24R
$$
MIZ007>008-015-202200-
EASTERN UPPER MICHIGAN

CITY           SKY/WX    TMP DP  RH WIND       PRES   REMARKS
KINROSS        CLOUDY    43  43 100 SW9       29.12R
MACKINAC ISLAN CLOUDY    39  39 100 SW14G22   29.16R FOG     WCI  31
NEWBERRY       CLOUDY    38  37  99 W13       29.14R FOG     WCI  30
S. S. MARIE    LGT RAIN  45  43  93 SW12      29.10R FOG
$$
MIZ004>006-011>014-085-202200-
CENTRAL UPPER MICHIGAN

CITY           SKY/WX    TMP DP  RH WIND       PRES   REMARKS
MANISTIQUE     LGT RAIN  41  40  98 W8        29.18R
ESCANABA       CLOUDY    39  34  81 W16G25    29.22R WCI  30
MENOMINEE      CLOUDY    39  34  81 W12G17    29.28R WCI  32
SAWYER-GWINN   LGT SNOW  36  34  93 NW18      29.19R WCI  25
$$
MIZ001>003-009>011-084-202200-
WESTERN UPPER MICHIGAN

CITY           SKY/WX    TMP DP  RH WIND       PRES   REMARKS
IRON MOUNTAIN  FLURRIES  37  33  85 W14G26    29.24R WCI  28
HOUGHTON       SNOW      33  31  92 W25       29.18R VSB 1/2 WCI  20
COPPER HARBOR    N/A     34  32  92 NW15G25   29.15S WCI  24
IRONWOOD       CLOUDY    37  34  87 W12       29.28S WCI  30
$$

ABBREVIATIONS USED IN REMARKS
   TC - TEMPERATURE IN CELSIUS
  WCI - WIND CHILL INDEX
   HX - HEAT INDEX
  VSB - VISIBILITY




USA.gov is the U.S. government's official web portal to all federal, state and local government web resources and services.